Regional Weather Roundup
Issued by NWS

Home | Current Version | Previous Version | Text Only | Print | Product List | Glossary Off
Versions: 1 2 3 4 5 6 7 8 9 10 11 12 13 14 15 16 17 18 19 20 21 22 23 24 25 26 27 28 29 30 31 32 33 34 35 36 37 38 39 40 41 42 43 44 45 46 47 48 49 50

000
ASUS43 KLSX 240810
RWRMO

WEATHER SUMMARY FOR MISSOURI
NATIONAL WEATHER SERVICE SPRINGFIELD MO
300 AM CDT SAT JUN 24 2017

NOTE: "FAIR" INDICATES FEW OR NO CLOUDS BELOW 12,000 FEET WITH NO
       SIGNIFICANT WEATHER AND/OR OBSTRUCTIONS TO VISIBILITY.
       CURRENT SKY AND/OR WEATHER CONDITIONS ARE NOT AVAILABLE FOR
       CHILLICOTHE AND FARMINGTON.

MOZ001>031-035>038-043-044-053-054-240900-
...NORTHERN AND WESTERN MISSOURI...

CITY           SKY/WX    TMP DP  RH WIND       PRES   REMARKS
KANSAS CTY INT CLEAR     59  55  87 NW7       30.11R
KANSAS C DTWN  PTCLDY    64  55  72 NW5       30.10R
LEE`S SUMMIT   CLEAR     63  55  75 NW7       30.11R
ST JOSEPH      CLEAR     57  56  96 CALM      30.11S
CHILLICOTHE      N/A     63  54  72 VRB3      30.09R
KIRKSVILLE     CLEAR     61  53  75 NW9       30.06R

$$
MOZ066>068-077>081-088>096-101>105-240900-
...SOUTHWEST MISSOURI...

CITY           SKY/WX    TMP DP  RH WIND       PRES   REMARKS
SPRINGFIELD    CLEAR     64  54  69 N3        30.09S
JOPLIN         CLEAR     64  57  78 N5        30.11R
BRANSON        PTCLDY    63  57  82 NW8       30.10S

$$
MOZ032>034-039>042-045>050-055>058-069>072-240900-
...CENTRAL MISSOURI...

CITY           SKY/WX    TMP DP  RH WIND       PRES   REMARKS
COLUMBIA       PTCLDY    62  55  77 NW6       30.06R
JEFFERSON CITY CLEAR     64  55  72 NW5       30.06R
ROLLA          CLEAR     61  54  77 NW7       30.05R
SEDALIA        CLEAR     61  57  87 W3        30.09R
WHITEMAN AFB   CLEAR     62  59  90 W6        30.07S
WARRENSBURG    CLEAR     59  54  82 W3        30.08S
OSAGE BEACH    CLEAR     63  54  72 VRB3      30.08R

$$
MOZ051-052-059>065-240900-
...EAST CENTRAL MISSOURI...

CITY           SKY/WX    TMP DP  RH WIND       PRES   REMARKS
ST LOUIS INTL  CLEAR     68  56  65 NW8       30.00S
SPIRIT OF STL  CLEAR     64  56  75 W3        30.01R
ST CHARLES     CLEAR     68  56  65 NW9       30.00R

$$
MOZ072>076-082>087-097>100-106>115-240900-
...SOUTH CENTRAL AND SOUTHEAST MISSOURI...

CITY           SKY/WX    TMP DP  RH WIND       PRES   REMARKS
CAPE GIRARDEAU MOCLDY    68  58  70 N7        29.98R
FARMINGTON     CLOUDY    63  56  78 CALM      30.04R
POPLAR BLUFF   CLOUDY    67  61  81 NW9       29.98S
WEST PLAINS    CLOUDY    64  54  69 N7        30.07S

$$




USA.gov is the U.S. government's official web portal to all federal, state and local government web resources and services.